Powrót do katalogu

NOAA 16 DEB

AktywnySSO
NORAD 41296·DEBRIS·🇺🇸 United States

Wystrzelony Sep 21, 2000 z Vandenberg Space Force Base

Loading…

Następne Przeloty (najbliższe 24 godziny)

TLE

ŚwieżeSource: Space-Track

Epoka: Sep 13, 2026, 20:52 UTC

1 41296U 00055GY  26256.87009413  .00001724  00000-0  81282-3 0  9993
2 41296  98.7094 312.9648 0024109 266.8819  92.9600 14.21010366551540

Śledź NOAA 16 DEB w czasie rzeczywistym z AllMySat

Download on the App Store